Location: Arbon
(43.0005°N, 0.7472°E)
Time: 02:53:56
(UTC+00:00)

Cosmos 2263 Rocket - Pass Details

Date: 07 August 2020
Orbit: 823 x 849 km, 71.0° (Epoch: 27 September)

Event Time Altitude Azimuth Distance (km) Brightness Sun altitude
Exits shadow 02:24:15 14° 148° (SSE) 2,178 4.1 -22.4°
Maximum altitude 02:27:47 24° 102° (ESE) 1,632 3.9 -22.0°
Drops below altitude 10° 02:32:10 10° 50° (NE) 2,429 5.7 -21.5°
Sets 02:34:59 0° 37° (NE) 3,366 6.9 -21.2°
